SCP
0 0 -0 -0 -0 0 0 0 0 0 0 -0 0 0 -0 0 0 0 0 -0 0 0 0 0 0 0 0 0 0 0 0 0 0 0 0 0 0 0 0 0 0 0 0 0
0 0 0 0 0 -0 -0 0 0 0 0 0 0 0 0 0 0 0 0 0 0 0 0 0 0 0 0 0 0 0 0 0 0 0 0 0 0 0 0 0 0 0 0 0
0 0 0 -0 -0 -0 0 0 -0 -0 -0 0 0 0 0 0 0 0 0 0 0 0 0 1 1 1 1 1 0 0 0 0 0 0 0 0 0 0 0 0 0 0 0 0
0 0 -0 0 -0 -0 -0 0 0 0 0 0 0 0 0 0 0 0 0 0 0 0 0 1 0 0 0 0 0 0 0 0 0 0 0 0 0 0 0 0 0 0 0 0
0 0 -0 -0 0 0 0 -0 0 0 0 0 0 0 0 0 0 0 0 0 0 0 0 0 0 0 0 0 0 0 0 0 0 0 0 0 0 0 0 0 0 0 0 0
0 0 0 0 0 0 0 -0 0 0 0 0 0 0 0 0 0 0 0 0 0 0 0 0 0 0 0 0 0 0 0 0 0 0 0 0 0 0 0 0 0 0 0 0
0 0 0 0 0 0 0 0 0 0 0 0 -0 0 0 0 0 0 0 0 0 0 0 0 0 0 0 0 0 0 0 0 0 0 0 0 0 0 -0 0 0 0 0 0
0 0 0 0 -0 0 0 -0 0 0 0 0 0 0 0 0 0 0 0 0 0 0 0 0 0 0 0 0 0 0 0 0 0 0 0 0 0 0 0 0 0 0 0 0
0 0 0 0 0 0 0 0 0 0 0 0 -0 -0 0 0 -0 -0 -0 -0 0 0 0 0 0 0 0 -0 -0 0 0 0 0 0 0 0 0 0 0 0 0 -0 -0 0
0 0 0 0 0 0 0 0 0 0 0 -0 -0 -0 -0 -0 -0 -0 -0 0 0 -0 -0 -0 0 -0 -0 -0 0 0 0 0 0 -0 -0 -0 -0 -0 -0 0 -0 -0 -0 1
0 0 -0 0 0 0 0 0 0 0 0 0 0 0 -0 -0 -0 -0 0 0 -0 -0 0 0 0 -0 -0 -0 -0 -0 -0 -0 -0 0 0 -0 0 -0 -0 -0 0 -0 0 1
0 0 0 0 0 0 0 0 0 0 0 0 0 -0 -0 -0 0 -0 -0 -0 -0 -0 -0 -0 -0 -0 -0 -0 -0 -0 -0 -0 -0 0 0 0 0 -0 -0 0 0 0 1 1
0 0 0 0 0 0 0 0 0 0 -0 0 -0 0 0 0 0 0 0 -0 -0 -0 -0 0 -0 -0 -0 -0 -0 -0 -0 0 0 0 0 -0 -0 -0 -0 -0 0 0 0 0
0 0 0 0 0 0 0 0 0 0 0 -0 -0 -0 -0 -0 -0 -0 -0 -0 -0 -0 -0 -0 -0 -0 -0 -0 -0 -0 0 0 0 0 0 0 0 0 0 0 0 0 0 0
0 0 0 0 0 0 0 0 -0 0 0 0 0 0 -0 -0 0 -0 -0 -0 -0 -0 -0 -0 -0 -0 -0 -0 -0 -0 0 0 0 0 0 0 0 0 0 0 0 0 0 0
0 0 0 0 0 -0 0 0 0 0 0 0 0 -0 -0 -0 -0 -0 -0 -0 -0 -0 -0 -0 -0 -0 -0 0 0 0 0 0 0 0 0 0 0 0 0 0 0 0 0 0
-0 0 0 0 0 0 0 0 0 0 0 0 0 -0 -0 -0 -0 -0 -0 -0 -0 -0 -0 -0 -0 0 0 0 0 0 0 0 0 0 0 0 0 0 0 0 0 0 0 0
0 0 0 0 0 0 0 0 0 0 0 -0 -0 -0 -0 -0 -0 -0 -0 -0 -0 -0 0 0 0 0 0 0 0 0 0 0 0 0 0 0 0 0 0 0 0 0 0 0
0 0 0 0 0 0 0 0 0 0 0 -0 -0 -0 -0 -0 -0 0 -0 0 0 -0 -0 -0 0 0 0 0 0 0 0 0 0 0 0 0 0 0 0 0 0 0 0 0
0 0 0 0 0 -0 -0 -0 0 0 0 0 0 0 0 0 -0 0 0 0 0 0 0 0 0 -0 0 0 0 0 0 0 0 0 0 0 0 0 0 0 0 0 0 0
0 0 0 0 0 -0 -0 -0 0 0 0 0 0 0 0 0 0 0 0 0 0 0 0 0 0 0 0 0 0 0 0 0 0 0 0 0 0 0 0 0 0 0 0 0
-0 0 0 0 -0 -0 -0 -0 -0 0 0 0 0 0 0 0 0 0 0 0 0 0 0 0 0 0 0 0 0 0 0 0 0 0 0 0 0 0 0 0 0 0 0 0
-0 -0 -0 0 0 -0 -0 -0 -0 -0 0 0 0 0 0 0 0 0 0 0 0 0 0 0 0 0 0 0 0 0 0 0 0 0 0 0 0 0 0 0 0 0 0 0
-0 -0 -0 -0 0 -0 -0 -0 -0 -0 0 0 0 0 0 0 0 0 0 0 0 0 0 0 0 0 0 0 0 0 0 0 0 0 0 0 0 0 0 0 0 0 0 0
-0 -0 -0 -0 -0 -0 -0 -0 -0 -0 -0 0 0 0 -0 0 0 0 0 0 0 0 0 -0 0 0 0 0 0 0 0 0 0 0 0 0 0 0 0 0 0 0 0 0
0 -0 -0 -0 -0 -0 -0 -0 -0 -0 -0 0 0 -0 -0 0 0 0 0 0 0 0 0 0 0 0 0 0 0 0 0 0 0 0 0 0 0 0 0 0 0 0 0 0
-0 -0 0 0 0 0 -0 -0 -0 -0 -0 -0 0 0 -0 -0 0 0 0 0 0 0 0 0 0 0 0 0 0 0 0 0 0 0 0 0 0 0 0 0 0 0 0 0
Wind_Speed_500mb
40 41 44 48 52 48 43 44 33 43 41 46 36 29 38 56 45 52 66 115 57 29 28 28 36 38 40 43 46 46 45 46 51 56 59 62 65 63 71 75 77 78 77 70
44 39 45 47 47 49 49 47 46 42 48 40 39 52 46 60 66 56 61 43 32 20 25 32 38 40 45 40 42 47 54 55 56 57 63 68 73 70 72 77 78 79 80 74
33 36 38 38 40 33 40 42 35 37 43 33 36 32 33 16 27 22 40 24 39 52 29 27 29 31 35 39 45 50 54 56 57 61 64 70 74 70 79 78 75 81 84 78
25 23 24 10 26 34 16 34 34 36 33 30 41 31 39 79 16 18 30 42 36 37 48 46 45 55 64 65 64 61 64 64 62 64 66 70 75 83 90 82 76 83 84 84
7 14 34 46 20 22 19 42 25 27 29 5 20 22 30 70 45 41 45 47 50 52 55 59 62 73 64 65 68 74 72 67 63 59 67 77 86 94 97 92 86 82 84 82
10 10 11 15 26 10 17 28 33 44 41 38 52 28 24 68 73 71 63 55 56 62 68 69 68 64 67 78 81 77 68 70 65 67 71 76 82 95 84 79 83 82 79 83
16 18 16 18 33 37 19 18 57 61 61 58 35 37 60 56 61 64 67 67 69 72 71 69 67 63 53 54 58 56 57 59 63 70 79 86 86 84 78 78 81 84 82 82
9 7 7 28 15 23 23 50 50 59 60 56 59 69 70 64 65 66 74 78 81 81 86 87 75 60 65 63 67 64 67 74 71 77 77 80 69 61 67 75 75 81 82 77
9 12 31 43 42 42 53 54 63 73 76 71 73 72 83 78 77 75 76 77 75 82 87 83 81 74 73 76 75 80 76 75 70 67 73 77 72 79 82 73 74 80 80 73
21 13 34 60 34 53 58 63 66 66 71 73 78 77 75 69 72 74 77 74 75 75 79 81 74 69 75 75 68 67 70 72 72 74 79 76 76 76 79 87 84 85 85 73
28 26 64 23 54 60 67 68 68 78 75 81 82 76 77 78 83 79 75 69 60 62 64 67 65 69 69 70 68 69 69 73 77 75 73 84 91 88 82 82 87 79 81 80
8 43 28 45 65 78 74 66 77 84 81 85 71 73 65 68 65 64 62 59 62 72 74 75 73 74 71 68 65 68 72 67 72 87 102 100 88 61 70 68 66 66 81 93
22 46 55 65 64 59 67 78 65 79 71 64 61 56 61 65 64 58 60 67 65 67 68 68 72 73 65 60 61 67 76 81 92 97 87 63 81 67 56 73 69 97 72 73
33 34 34 44 61 64 72 73 85 72 63 57 63 61 60 62 55 56 57 59 63 67 69 64 66 67 58 46 53 58 68 74 65 26 41 57 61 41 64 64 75 70 45 53
33 44 60 66 55 68 75 84 76 66 70 67 64 59 58 58 56 55 59 58 60 62 66 61 54 45 33 36 39 45 53 65 38 30 46 58 80 72 71 70 73 75 70 65
52 52 52 62 53 73 63 79 74 77 73 73 68 63 57 56 56 53 54 53 56 59 54 47 45 33 22 34 38 40 36 28 17 45 62 57 61 69 77 85 82 79 78 77
43 51 62 56 59 50 56 76 76 73 72 72 68 60 57 53 52 51 50 48 46 48 40 33 36 28 28 30 23 16 13 11 31 61 54 66 68 71 67 70 86 86 82 75
37 51 51 57 64 50 57 81 84 79 72 77 66 61 59 55 49 53 48 42 39 34 28 33 36 40 37 24 18 2 3 5 33 54 65 65 67 68 62 68 74 76 75 65
37 49 50 53 63 59 60 67 79 89 78 83 75 66 61 52 51 43 33 36 38 41 39 41 42 47 34 25 31 18 13 27 37 45 60 59 69 66 54 57 68 68 65 57
39 44 52 51 61 55 64 67 69 95 78 85 80 73 67 60 53 47 41 39 29 37 39 29 32 43 39 41 38 26 28 36 49 49 54 59 67 65 60 66 71 62 56 56
42 50 48 51 61 57 58 71 63 84 88 76 93 80 73 66 62 47 54 53 42 27 31 37 38 36 58 47 38 38 24 50 41 53 60 66 65 64 65 67 65 64 59 55
45 47 48 50 57 64 62 68 65 81 91 80 91 86 88 76 76 62 50 57 53 60 50 39 52 63 60 50 43 28 47 49 57 59 63 65 67 66 67 65 59 59 52 48
45 44 44 46 58 60 60 65 68 80 93 84 85 91 89 88 81 83 87 70 66 69 50 39 42 52 52 41 42 48 52 54 62 64 68 67 69 66 69 69 63 54 49 47
51 49 41 42 50 55 69 74 65 80 84 84 85 92 88 93 90 82 68 59 61 66 62 38 37 38 49 53 54 52 53 52 55 58 61 60 64 64 70 66 58 48 50 50
44 45 49 47 48 56 57 64 62 77 80 91 86 93 83 80 81 79 70 59 52 56 57 36 26 36 55 51 48 47 48 52 56 58 60 59 56 57 66 59 52 48 53 49
36 43 47 44 41 44 48 63 57 67 73 93 80 91 86 78 76 76 71 60 50 46 47 42 38 41 47 51 49 48 48 47 46 49 51 54 57 62 62 57 52 50 52 47
25 39 51 52 55 55 46 55 58 63 65 79 75 79 84 78 72 71 72 66 57 42 43 40 40 44 44 43 44 43 41 42 44 49 53 59 64 63 59 56 54 53 52 51
Wind_Direction_500mb
282 288 286 289 282 277 229 233 247 263 260 269 275 265 227 218 249 273 249 260 229 250 241 249 254 254 250 248 252 257 262 265 272 277 284 287 282 275 274 273 265 264 267 253
281 293 292 287 292 289 277 275 276 262 268 279 273 265 261 222 239 237 256 309 311 246 256 260 261 269 274 282 264 253 256 261 267 271 277 283 285 278 272 268 265 265 264 257
286 294 297 292 280 274 291 293 282 279 288 297 312 332 337 303 285 313 308 289 276 265 297 310 319 306 299 292 284 271 263 264 266 271 276 282 282 274 270 273 266 262 264 258
284 299 284 281 330 298 318 276 293 341 11 333 317 319 346 319 235 256 238 292 322 310 305 309 302 295 293 293 288 282 274 267 266 267 271 279 275 271 268 269 267 261 261 257
254 250 279 290 354 1 7 314 37 350 332 353 264 311 276 276 355 338 328 319 311 301 298 292 286 289 284 282 279 278 273 272 270 272 274 279 270 272 274 258 261 264 263 259
255 260 280 356 3 344 241 276 6 340 328 325 318 302 300 328 325 321 315 306 299 294 289 285 283 278 274 277 275 271 269 269 272 276 274 265 267 278 264 257 261 261 259 255
242 253 265 26 344 334 296 326 326 323 317 318 318 309 309 297 296 294 295 300 301 300 299 297 289 283 279 284 277 274 273 272 274 275 273 267 275 267 256 258 265 257 257 254
231 253 285 11 344 349 314 312 324 325 330 322 319 310 298 299 303 304 304 305 302 300 298 295 293 302 290 286 286 281 275 276 274 274 272 272 272 267 254 261 258 258 254 252
255 301 326 356 340 334 344 331 335 329 320 316 310 303 307 305 302 298 298 299 298 299 293 292 290 288 287 285 285 278 277 272 276 273 268 267 258 261 261 261 257 258 252 243
328 326 341 340 352 337 331 324 318 314 308 302 298 294 295 303 300 297 296 293 295 289 288 288 288 288 283 285 281 278 278 278 276 272 269 263 262 263 264 262 256 255 243 240
299 310 334 332 326 318 312 312 318 312 311 312 311 308 305 300 297 296 294 293 289 285 288 288 289 285 283 283 284 281 279 280 277 277 266 259 257 263 247 244 243 232 228 201
278 314 297 291 307 309 311 326 321 317 313 307 303 300 299 296 296 294 292 290 286 286 289 290 288 286 285 286 284 283 281 280 273 265 260 248 243 237 230 225 214 218 191 176
298 298 294 298 305 318 321 323 320 322 314 304 307 302 297 294 294 292 289 291 293 293 292 290 289 289 290 290 286 282 279 269 272 276 271 235 208 206 229 205 221 177 157 171
311 320 313 306 306 318 329 324 322 328 322 315 314 310 307 303 302 299 296 296 296 297 294 293 292 289 288 286 288 292 293 295 316 113 156 158 177 179 183 134 122 126 140 154
324 316 302 305 324 335 327 330 329 325 329 326 325 317 312 309 305 302 302 304 301 295 292 294 291 290 294 292 294 298 302 312 349 125 133 145 138 138 141 141 134 133 133 139
316 316 320 333 336 334 336 341 338 335 333 331 328 325 318 314 310 309 306 301 298 298 295 293 287 289 298 309 306 300 306 319 31 143 149 133 124 132 141 136 137 141 144 145
318 316 320 337 329 341 347 352 341 333 337 336 333 331 330 323 320 318 315 308 299 292 288 288 290 287 279 287 291 320 338 326 127 141 134 131 127 128 128 134 143 145 146 149
315 311 330 330 331 341 345 350 349 342 341 344 345 344 341 334 326 325 326 320 314 295 281 278 280 278 277 272 246 245 3 283 141 147 134 128 128 130 127 144 145 142 142 143
332 330 333 335 342 348 348 342 341 351 342 356 355 353 347 342 336 330 333 332 316 302 290 281 271 266 264 219 195 174 135 151 154 141 139 128 127 125 134 137 136 134 128 124
340 339 338 337 337 348 350 348 339 348 352 352 3 1 359 358 354 349 351 346 341 317 302 286 251 242 211 183 174 155 147 150 143 140 135 130 123 120 131 133 133 127 137 144
345 336 342 342 341 349 354 352 347 345 358 349 4 2 3 5 8 6 4 4 7 24 52 70 90 156 180 176 185 171 162 152 140 139 137 132 135 127 127 131 141 145 146 151
344 341 339 341 343 346 353 355 355 350 2 356 358 8 9 11 12 17 21 8 18 49 68 97 116 129 143 153 158 151 155 134 140 138 131 129 129 137 144 149 149 152 154 153
349 342 339 341 344 347 348 352 359 356 3 4 360 11 13 16 17 12 12 23 40 65 80 99 115 126 136 131 142 137 133 134 141 144 139 140 149 150 149 148 149 149 153 151
356 357 352 345 351 350 352 356 357 357 2 7 4 15 17 16 22 23 23 30 48 65 77 90 107 128 138 125 132 141 148 148 155 157 158 159 155 156 158 157 149 143 147 145
353 355 1 355 354 351 351 355 358 1 1 9 10 16 21 24 24 23 24 33 51 68 81 89 120 124 125 138 142 146 149 153 158 161 163 162 163 163 161 157 153 148 147 146
351 4 5 3 356 354 2 1 360 8 3 8 14 15 20 24 22 26 31 35 45 64 80 97 108 114 123 131 137 142 146 152 157 159 161 161 160 160 160 158 152 152 151 147
359 8 15 16 13 7 17 6 2 11 7 6 19 15 21 25 27 26 30 35 42 43 70 84 101 114 122 128 130 131 134 142 150 153 154 156 157 158 156 156 152 150 150 150
Wind_Speed_850mb
40 41 44 48 52 48 43 44 33 43 41 46 36 29 38 56 45 52 66 115 57 29 28 28 36 38 40 43 46 46 45 46 51 56 59 62 65 63 71 75 77 78 77 70
44 39 45 47 47 49 49 47 46 42 48 40 39 52 46 60 66 56 61 43 32 20 25 32 38 40 45 40 42 47 54 55 56 57 63 68 73 70 72 77 78 79 80 74
33 36 38 38 40 33 40 42 35 37 43 33 36 32 33 16 27 22 40 24 39 52 29 27 29 31 35 39 45 50 54 56 57 61 64 70 74 70 79 78 75 81 84 78
25 23 24 10 26 34 16 34 34 36 33 30 41 31 39 79 16 18 30 42 36 37 48 46 45 55 64 65 64 61 64 64 62 64 66 70 75 83 90 82 76 83 84 84
7 14 34 46 20 22 19 42 25 27 29 5 20 22 30 70 45 41 45 47 50 52 55 59 62 73 64 65 68 74 72 67 63 59 67 77 86 94 97 92 86 82 84 82
10 10 11 15 26 10 17 28 33 44 41 38 52 28 24 68 73 71 63 55 56 62 68 69 68 64 67 78 81 77 68 70 65 67 71 76 82 95 84 79 83 82 79 83
16 18 16 18 33 37 19 18 57 61 61 58 35 37 60 56 61 64 67 67 69 72 71 69 67 63 53 54 58 56 57 59 63 70 79 86 86 84 78 78 81 84 82 82
9 7 7 28 15 23 23 50 50 59 60 56 59 69 70 64 65 66 74 78 81 81 86 87 75 60 65 63 67 64 67 74 71 77 77 80 69 61 67 75 75 81 82 77
9 12 31 43 42 42 53 54 63 73 76 71 73 72 83 78 77 75 76 77 75 82 87 83 81 74 73 76 75 80 76 75 70 67 73 77 72 79 82 73 74 80 80 73
21 13 34 60 34 53 58 63 66 66 71 73 78 77 75 69 72 74 77 74 75 75 79 81 74 69 75 75 68 67 70 72 72 74 79 76 76 76 79 87 84 85 85 73
28 26 64 23 54 60 67 68 68 78 75 81 82 76 77 78 83 79 75 69 60 62 64 67 65 69 69 70 68 69 69 73 77 75 73 84 91 88 82 82 87 79 81 80
8 43 28 45 65 78 74 66 77 84 81 85 71 73 65 68 65 64 62 59 62 72 74 75 73 74 71 68 65 68 72 67 72 87 102 100 88 61 70 68 66 66 81 93
22 46 55 65 64 59 67 78 65 79 71 64 61 56 61 65 64 58 60 67 65 67 68 68 72 73 65 60 61 67 76 81 92 97 87 63 81 67 56 73 69 97 72 73
33 34 34 44 61 64 72 73 85 72 63 57 63 61 60 62 55 56 57 59 63 67 69 64 66 67 58 46 53 58 68 74 65 26 41 57 61 41 64 64 75 70 45 53
33 44 60 66 55 68 75 84 76 66 70 67 64 59 58 58 56 55 59 58 60 62 66 61 54 45 33 36 39 45 53 65 38 30 46 58 80 72 71 70 73 75 70 65
52 52 52 62 53 73 63 79 74 77 73 73 68 63 57 56 56 53 54 53 56 59 54 47 45 33 22 34 38 40 36 28 17 45 62 57 61 69 77 85 82 79 78 77
43 51 62 56 59 50 56 76 76 73 72 72 68 60 57 53 52 51 50 48 46 48 40 33 36 28 28 30 23 16 13 11 31 61 54 66 68 71 67 70 86 86 82 75
37 51 51 57 64 50 57 81 84 79 72 77 66 61 59 55 49 53 48 42 39 34 28 33 36 40 37 24 18 2 3 5 33 54 65 65 67 68 62 68 74 76 75 65
37 49 50 53 63 59 60 67 79 89 78 83 75 66 61 52 51 43 33 36 38 41 39 41 42 47 34 25 31 18 13 27 37 45 60 59 69 66 54 57 68 68 65 57
39 44 52 51 61 55 64 67 69 95 78 85 80 73 67 60 53 47 41 39 29 37 39 29 32 43 39 41 38 26 28 36 49 49 54 59 67 65 60 66 71 62 56 56
42 50 48 51 61 57 58 71 63 84 88 76 93 80 73 66 62 47 54 53 42 27 31 37 38 36 58 47 38 38 24 50 41 53 60 66 65 64 65 67 65 64 59 55
45 47 48 50 57 64 62 68 65 81 91 80 91 86 88 76 76 62 50 57 53 60 50 39 52 63 60 50 43 28 47 49 57 59 63 65 67 66 67 65 59 59 52 48
45 44 44 46 58 60 60 65 68 80 93 84 85 91 89 88 81 83 87 70 66 69 50 39 42 52 52 41 42 48 52 54 62 64 68 67 69 66 69 69 63 54 49 47
51 49 41 42 50 55 69 74 65 80 84 84 85 92 88 93 90 82 68 59 61 66 62 38 37 38 49 53 54 52 53 52 55 58 61 60 64 64 70 66 58 48 50 50
44 45 49 47 48 56 57 64 62 77 80 91 86 93 83 80 81 79 70 59 52 56 57 36 26 36 55 51 48 47 48 52 56 58 60 59 56 57 66 59 52 48 53 49
36 43 47 44 41 44 48 63 57 67 73 93 80 91 86 78 76 76 71 60 50 46 47 42 38 41 47 51 49 48 48 47 46 49 51 54 57 62 62 57 52 50 52 47
25 39 51 52 55 55 46 55 58 63 65 79 75 79 84 78 72 71 72 66 57 42 43 40 40 44 44 43 44 43 41 42 44 49 53 59 64 63 59 56 54 53 52 51
Wind_Direction_850mb
282 288 286 289 282 277 229 233 247 263 260 269 275 265 227 218 249 273 249 260 229 250 241 249 254 254 250 248 252 257 262 265 272 277 284 287 282 275 274 273 265 264 267 253
281 293 292 287 292 289 277 275 276 262 268 279 273 265 261 222 239 237 256 309 311 246 256 260 261 269 274 282 264 253 256 261 267 271 277 283 285 278 272 268 265 265 264 257
286 294 297 292 280 274 291 293 282 279 288 297 312 332 337 303 285 313 308 289 276 265 297 310 319 306 299 292 284 271 263 264 266 271 276 282 282 274 270 273 266 262 264 258
284 299 284 281 330 298 318 276 293 341 11 333 317 319 346 319 235 256 238 292 322 310 305 309 302 295 293 293 288 282 274 267 266 267 271 279 275 271 268 269 267 261 261 257
254 250 279 290 354 1 7 314 37 350 332 353 264 311 276 276 355 338 328 319 311 301 298 292 286 289 284 282 279 278 273 272 270 272 274 279 270 272 274 258 261 264 263 259
255 260 280 356 3 344 241 276 6 340 328 325 318 302 300 328 325 321 315 306 299 294 289 285 283 278 274 277 275 271 269 269 272 276 274 265 267 278 264 257 261 261 259 255
242 253 265 26 344 334 296 326 326 323 317 318 318 309 309 297 296 294 295 300 301 300 299 297 289 283 279 284 277 274 273 272 274 275 273 267 275 267 256 258 265 257 257 254
231 253 285 11 344 349 314 312 324 325 330 322 319 310 298 299 303 304 304 305 302 300 298 295 293 302 290 286 286 281 275 276 274 274 272 272 272 267 254 261 258 258 254 252
255 301 326 356 340 334 344 331 335 329 320 316 310 303 307 305 302 298 298 299 298 299 293 292 290 288 287 285 285 278 277 272 276 273 268 267 258 261 261 261 257 258 252 243
328 326 341 340 352 337 331 324 318 314 308 302 298 294 295 303 300 297 296 293 295 289 288 288 288 288 283 285 281 278 278 278 276 272 269 263 262 263 264 262 256 255 243 240
299 310 334 332 326 318 312 312 318 312 311 312 311 308 305 300 297 296 294 293 289 285 288 288 289 285 283 283 284 281 279 280 277 277 266 259 257 263 247 244 243 232 228 201
278 314 297 291 307 309 311 326 321 317 313 307 303 300 299 296 296 294 292 290 286 286 289 290 288 286 285 286 284 283 281 280 273 265 260 248 243 237 230 225 214 218 191 176
298 298 294 298 305 318 321 323 320 322 314 304 307 302 297 294 294 292 289 291 293 293 292 290 289 289 290 290 286 282 279 269 272 276 271 235 208 206 229 205 221 177 157 171
311 320 313 306 306 318 329 324 322 328 322 315 314 310 307 303 302 299 296 296 296 297 294 293 292 289 288 286 288 292 293 295 316 113 156 158 177 179 183 134 122 126 140 154
324 316 302 305 324 335 327 330 329 325 329 326 325 317 312 309 305 302 302 304 301 295 292 294 291 290 294 292 294 298 302 312 349 125 133 145 138 138 141 141 134 133 133 139
316 316 320 333 336 334 336 341 338 335 333 331 328 325 318 314 310 309 306 301 298 298 295 293 287 289 298 309 306 300 306 319 31 143 149 133 124 132 141 136 137 141 144 145
318 316 320 337 329 341 347 352 341 333 337 336 333 331 330 323 320 318 315 308 299 292 288 288 290 287 279 287 291 320 338 326 127 141 134 131 127 128 128 134 143 145 146 149
315 311 330 330 331 341 345 350 349 342 341 344 345 344 341 334 326 325 326 320 314 295 281 278 280 278 277 272 246 245 3 283 141 147 134 128 128 130 127 144 145 142 142 143
332 330 333 335 342 348 348 342 341 351 342 356 355 353 347 342 336 330 333 332 316 302 290 281 271 266 264 219 195 174 135 151 154 141 139 128 127 125 134 137 136 134 128 124
340 339 338 337 337 348 350 348 339 348 352 352 3 1 359 358 354 349 351 346 341 317 302 286 251 242 211 183 174 155 147 150 143 140 135 130 123 120 131 133 133 127 137 144
345 336 342 342 341 349 354 352 347 345 358 349 4 2 3 5 8 6 4 4 7 24 52 70 90 156 180 176 185 171 162 152 140 139 137 132 135 127 127 131 141 145 146 151
344 341 339 341 343 346 353 355 355 350 2 356 358 8 9 11 12 17 21 8 18 49 68 97 116 129 143 153 158 151 155 134 140 138 131 129 129 137 144 149 149 152 154 153
349 342 339 341 344 347 348 352 359 356 3 4 360 11 13 16 17 12 12 23 40 65 80 99 115 126 136 131 142 137 133 134 141 144 139 140 149 150 149 148 149 149 153 151
356 357 352 345 351 350 352 356 357 357 2 7 4 15 17 16 22 23 23 30 48 65 77 90 107 128 138 125 132 141 148 148 155 157 158 159 155 156 158 157 149 143 147 145
353 355 1 355 354 351 351 355 358 1 1 9 10 16 21 24 24 23 24 33 51 68 81 89 120 124 125 138 142 146 149 153 158 161 163 162 163 163 161 157 153 148 147 146
351 4 5 3 356 354 2 1 360 8 3 8 14 15 20 24 22 26 31 35 45 64 80 97 108 114 123 131 137 142 146 152 157 159 161 161 160 160 160 158 152 152 151 147
359 8 15 16 13 7 17 6 2 11 7 6 19 15 21 25 27 26 30 35 42 43 70 84 101 114 122 128 130 131 134 142 150 153 154 156 157 158 156 156 152 150 150 150